JST949 YBCS-YSSY

Flight info

Callsign JST949
Flight time 2h 54m
Altitude 35000
Route CS Y177 AKROM Y153 ROKUU H652 BOREE
Aircraft A321/M-SDE3FGHIRWY/LB1

Departure

Time 2026-04-26 07:13
Airport Cairns International Airport (YBCS)

Arrival

Time 2026-04-26 10:08
Airport Sydney Kingsford Smith International Airport (YSSY)
Time Latitude Longitude Altitude Speed Heading
2026-04-26 06:55 -16.87824 145.75321 17 ft 0 kts 66°
2026-04-26 07:02 -16.87825 145.75318 17 ft 1 kts 66°
2026-04-26 07:02 -16.87832 145.75301 18 ft 1 kts 69°
2026-04-26 07:03 -16.87839 145.75281 20 ft 1 kts 71°
2026-04-26 07:03 -16.87846 145.75261 17 ft 1 kts 70°
2026-04-26 07:03 -16.87853 145.75243 19 ft 1 kts 60°
2026-04-26 07:03 -16.87864 145.75227 20 ft 1 kts 34°
2026-04-26 07:04 -16.87881 145.75218 17 ft 1 kts
2026-04-26 07:04 -16.87886 145.75218 19 ft 14 kts
2026-04-26 07:09 -16.87879 145.75218 17 ft 6 kts
2026-04-26 07:09 -16.87797 145.75199 17 ft 19 kts 342°
2026-04-26 07:10 -16.87339 145.74894 17 ft 34 kts 336°
2026-04-26 07:11 -16.87050 145.74724 16 ft 0 kts 276°
2026-04-26 07:12 -16.87061 145.74682 16 ft 20 kts 249°
2026-04-26 07:12 -16.87150 145.74618 15 ft 13 kts 172°
2026-04-26 07:12 -16.87211 145.74641 16 ft 0 kts 156°
2026-04-26 07:12 -16.87393 145.74722 17 ft 62 kts 156°
2026-04-26 07:13 -16.87989 145.74995 18 ft 124 kts 156°
2026-04-26 07:13 -16.88948 145.75432 178 ft 168 kts 154°
2026-04-26 07:13 -16.89960 145.76107 726 ft 188 kts 129°
2026-04-26 07:13 -16.90440 145.77524 904 ft 236 kts 95°
2026-04-26 07:14 -16.90677 145.79358 1145 ft 274 kts 113°
2026-04-26 07:14 -16.91778 145.80927 2332 ft 268 kts 144°
2026-04-26 07:14 -16.93443 145.81793 3518 ft 276 kts 157°
2026-04-26 07:14 -16.95330 145.82674 3770 ft 313 kts 153°
2026-04-26 07:15 -16.97344 145.83773 4292 ft 339 kts 151°
2026-04-26 07:15 -16.99471 145.85032 4822 ft 363 kts 149°
2026-04-26 07:15 -17.01706 145.86427 5322 ft 385 kts 148°
2026-04-26 07:15 -17.04041 145.87937 5859 ft 405 kts 147°
2026-04-26 07:16 -17.06387 145.89490 6374 ft 378 kts 147°
2026-04-26 07:16 -17.08421 145.90852 6852 ft 323 kts 146°
2026-04-26 07:16 -17.10187 145.92047 7345 ft 282 kts 146°
2026-04-26 07:16 -17.11803 145.93149 7857 ft 278 kts 147°
2026-04-26 07:17 -17.13393 145.94238 8355 ft 270 kts 147°
2026-04-26 07:17 -17.14983 145.95336 8899 ft 277 kts 147°
2026-04-26 07:17 -17.16602 145.96455 9420 ft 281 kts 147°
2026-04-26 07:17 -17.18242 145.97594 9962 ft 285 kts 147°
2026-04-26 07:18 -17.19908 145.98752 10457 ft 288 kts 148°
2026-04-26 07:18 -17.21559 145.99899 10945 ft 289 kts 148°
2026-04-26 07:18 -17.23237 146.01068 11442 ft 291 kts 148°
2026-04-26 07:18 -17.24956 146.02263 11968 ft 293 kts 148°
2026-04-26 07:19 -17.26664 146.03453 12481 ft 297 kts 148°
2026-04-26 07:19 -17.28366 146.04640 13005 ft 299 kts 148°
2026-04-26 07:19 -17.30104 146.05852 13541 ft 302 kts 148°
2026-04-26 07:19 -17.31859 146.07078 14052 ft 304 kts 148°
2026-04-26 07:20 -17.33626 146.08318 14528 ft 308 kts 148°
2026-04-26 07:20 -17.35416 146.09573 15010 ft 311 kts 149°
2026-04-26 07:20 -17.37247 146.10859 15513 ft 315 kts 149°
2026-04-26 07:20 -17.38457 146.11709 15849 ft 318 kts 149°
2026-04-26 07:21 -17.40305 146.13006 16362 ft 322 kts 149°
2026-04-26 07:21 -17.42172 146.14320 16875 ft 325 kts 150°
2026-04-26 07:21 -17.44665 146.16073 17572 ft 328 kts 150°
2026-04-26 07:21 -17.46570 146.17412 18113 ft 332 kts 150°
2026-04-26 07:22 -17.48498 146.18766 18607 ft 336 kts 151°
2026-04-26 07:22 -17.49817 146.19689 18926 ft 339 kts 151°
2026-04-26 07:22 -17.51789 146.21070 19405 ft 344 kts 151°
2026-04-26 07:22 -17.53793 146.22473 19898 ft 348 kts 151°
2026-04-26 07:23 -17.55815 146.23890 20384 ft 352 kts 151°
2026-04-26 07:23 -17.57863 146.25326 20894 ft 355 kts 151°
2026-04-26 07:23 -17.59924 146.26773 21406 ft 358 kts 151°
2026-04-26 07:23 -17.62000 146.28231 21929 ft 360 kts 152°
2026-04-26 07:24 -17.64087 146.29698 22455 ft 362 kts 152°
2026-04-26 07:24 -17.66196 146.31180 22870 ft 367 kts 152°
2026-04-26 07:24 -17.68329 146.32677 23300 ft 371 kts 152°
2026-04-26 07:24 -17.70484 146.34190 23709 ft 374 kts 152°
2026-04-26 07:25 -17.72653 146.35716 24095 ft 377 kts 152°
2026-04-26 07:25 -17.74839 146.37256 24462 ft 380 kts 152°
2026-04-26 07:25 -17.77044 146.38809 24834 ft 383 kts 152°
2026-04-26 07:25 -17.79262 146.40371 25199 ft 385 kts 152°
2026-04-26 07:26 -17.81494 146.41943 25551 ft 388 kts 152°
2026-04-26 07:26 -17.83749 146.43532 25906 ft 391 kts 153°
2026-04-26 07:26 -17.85987 146.45109 26257 ft 394 kts 153°
2026-04-26 07:26 -17.88269 146.46719 26608 ft 397 kts 153°
2026-04-26 07:27 -17.90566 146.48338 26965 ft 399 kts 153°
2026-04-26 07:27 -17.92879 146.49969 27302 ft 402 kts 153°
2026-04-26 07:27 -17.95206 146.51611 27635 ft 404 kts 153°
2026-04-26 07:27 -17.97549 146.53264 27965 ft 407 kts 153°
2026-04-26 07:28 -17.99905 146.54928 28292 ft 409 kts 153°
2026-04-26 07:28 -18.02276 146.56602 28614 ft 412 kts 153°
2026-04-26 07:28 -18.04660 146.58286 28937 ft 414 kts 153°
2026-04-26 07:28 -18.07060 146.59981 29254 ft 417 kts 153°
2026-04-26 07:29 -18.09473 146.61686 29561 ft 419 kts 153°
2026-04-26 07:29 -18.11899 146.63402 29864 ft 421 kts 153°
2026-04-26 07:29 -18.14337 146.65126 30141 ft 424 kts 153°
2026-04-26 07:29 -18.16790 146.66862 30394 ft 426 kts 153°
2026-04-26 07:30 -18.19253 146.68606 30642 ft 428 kts 154°
2026-04-26 07:30 -18.21727 146.70359 30886 ft 430 kts 154°
2026-04-26 07:30 -18.24210 146.72119 31128 ft 432 kts 154°
2026-04-26 07:30 -18.26704 146.73886 31364 ft 433 kts 154°
2026-04-26 07:31 -18.29210 146.75662 31595 ft 435 kts 154°
2026-04-26 07:31 -18.31727 146.77445 31829 ft 437 kts 155°
2026-04-26 07:31 -18.34363 146.78915 32054 ft 423 kts 168°
2026-04-26 07:31 -18.37124 146.79938 32263 ft 420 kts 172°
2026-04-26 07:32 -18.39917 146.80837 32469 ft 420 kts 173°
2026-04-26 07:32 -18.42730 146.81686 32678 ft 421 kts 174°
2026-04-26 07:32 -18.45554 146.82506 32886 ft 422 kts 175°
2026-04-26 07:32 -18.48390 146.83310 33099 ft 423 kts 175°
2026-04-26 07:33 -18.51242 146.84104 33302 ft 424 kts 175°
2026-04-26 07:33 -18.54100 146.84891 33497 ft 425 kts 176°
2026-04-26 07:33 -18.56970 146.85676 33709 ft 427 kts 176°
2026-04-26 07:33 -18.59846 146.86457 33901 ft 428 kts 176°
2026-04-26 07:34 -18.62730 146.87238 34092 ft 429 kts 176°
2026-04-26 07:34 -18.65627 146.88019 34261 ft 430 kts 176°
2026-04-26 07:34 -18.68523 146.88797 34432 ft 430 kts 176°
2026-04-26 07:34 -18.71433 146.89577 34606 ft 431 kts 176°
2026-04-26 07:35 -18.74341 146.90356 34779 ft 432 kts 177°
2026-04-26 07:35 -18.77256 146.91135 34897 ft 434 kts 177°
2026-04-26 07:35 -18.80166 146.91909 34946 ft 439 kts 177°
2026-04-26 07:36 -18.86157 146.93495 34982 ft 450 kts 176°
2026-04-26 07:36 -18.92321 146.95124 34991 ft 463 kts 176°
2026-04-26 07:37 -18.98564 146.96792 34988 ft 458 kts 176°
2026-04-26 07:37 -19.04664 146.98446 34993 ft 450 kts 176°
2026-04-26 07:38 -19.10746 147.00079 34992 ft 453 kts 177°
2026-04-26 07:38 -19.16862 147.01713 34995 ft 453 kts 177°
2026-04-26 07:39 -19.22966 147.03349 35001 ft 452 kts 177°
2026-04-26 07:39 -19.29069 147.04982 34998 ft 452 kts 177°
2026-04-26 07:40 -19.35161 147.06614 34996 ft 451 kts 177°
2026-04-26 07:40 -19.41254 147.08245 35001 ft 453 kts 177°
2026-04-26 07:41 -19.47367 147.09882 34998 ft 453 kts 177°
2026-04-26 07:41 -19.53461 147.11520 34996 ft 451 kts 177°
2026-04-26 07:42 -19.59549 147.13155 34999 ft 452 kts 177°
2026-04-26 07:42 -19.65606 147.14778 34998 ft 453 kts 177°
2026-04-26 07:43 -19.71711 147.16419 35002 ft 452 kts 177°
2026-04-26 07:43 -19.77808 147.18061 35002 ft 452 kts 177°
2026-04-26 07:44 -19.83909 147.19704 34994 ft 453 kts 177°
2026-04-26 07:44 -19.90021 147.21351 35002 ft 453 kts 177°
2026-04-26 07:45 -19.96127 147.22998 35002 ft 452 kts 177°
2026-04-26 07:45 -20.02222 147.24645 35009 ft 452 kts 177°
2026-04-26 07:46 -20.08326 147.26292 35007 ft 453 kts 176°
2026-04-26 07:46 -20.14438 147.27944 35007 ft 453 kts 176°
2026-04-26 07:47 -20.20539 147.29596 35005 ft 452 kts 176°
2026-04-26 07:47 -20.26638 147.31248 35005 ft 452 kts 176°
2026-04-26 07:48 -20.32734 147.32900 35011 ft 452 kts 176°
2026-04-26 07:48 -20.38834 147.34553 35012 ft 453 kts 176°
2026-04-26 07:49 -20.44934 147.36210 35013 ft 452 kts 176°
2026-04-26 07:49 -20.51019 147.37863 35012 ft 451 kts 176°
2026-04-26 07:50 -20.60154 147.40348 35014 ft 452 kts 175°
2026-04-26 07:50 -20.66227 147.42004 35010 ft 449 kts 175°
2026-04-26 07:51 -20.72296 147.43662 35017 ft 451 kts 175°
2026-04-26 07:51 -20.78345 147.45309 35020 ft 451 kts 175°
2026-04-26 07:52 -20.84422 147.46968 35014 ft 450 kts 175°
2026-04-26 07:52 -20.90489 147.48627 35028 ft 450 kts 175°
2026-04-26 07:53 -20.96553 147.50285 35043 ft 450 kts 175°
2026-04-26 07:53 -21.02625 147.51947 35054 ft 450 kts 175°
2026-04-26 07:54 -21.08685 147.53608 35062 ft 449 kts 175°
2026-04-26 07:54 -21.14731 147.55267 35073 ft 449 kts 175°
2026-04-26 07:55 -21.20788 147.56928 35083 ft 449 kts 174°
2026-04-26 07:55 -21.26841 147.58592 35093 ft 449 kts 174°
2026-04-26 07:56 -21.32876 147.60253 35109 ft 448 kts 174°
2026-04-26 07:56 -21.38910 147.61913 35115 ft 448 kts 174°
2026-04-26 07:57 -21.44956 147.63577 35116 ft 448 kts 174°
2026-04-26 07:57 -21.50992 147.65241 35129 ft 447 kts 174°
2026-04-26 07:58 -21.57014 147.66904 35133 ft 447 kts 174°
2026-04-26 07:58 -21.63047 147.68569 35139 ft 448 kts 174°
2026-04-26 07:59 -21.69079 147.70238 35144 ft 447 kts 174°
2026-04-26 07:59 -21.75091 147.71902 35154 ft 446 kts 174°
2026-04-26 08:00 -21.81098 147.73565 35162 ft 446 kts 174°
2026-04-26 08:00 -21.87118 147.75232 35169 ft 447 kts 173°
2026-04-26 08:01 -21.93130 147.76900 35172 ft 445 kts 173°
2026-04-26 08:01 -21.99126 147.78567 35178 ft 445 kts 173°
2026-04-26 08:02 -22.05117 147.80233 35181 ft 444 kts 173°
2026-04-26 08:02 -22.11100 147.81897 35188 ft 444 kts 173°
2026-04-26 08:03 -22.17042 147.83550 35197 ft 444 kts 173°
2026-04-26 08:03 -22.23023 147.85217 35207 ft 444 kts 173°
2026-04-26 08:04 -22.28994 147.86882 35212 ft 443 kts 173°
2026-04-26 08:04 -22.34936 147.88541 35217 ft 433 kts 173°
2026-04-26 08:05 -22.37814 147.89349 35212 ft 420 kts 173°
2026-04-26 08:05 -22.40600 147.90136 35212 ft 408 kts 173°
2026-04-26 08:05 -22.46084 147.91682 35208 ft 413 kts 173°
2026-04-26 08:06 -22.48912 147.92464 35071 ft 421 kts 173°
2026-04-26 08:06 -22.51769 147.93255 35086 ft 428 kts 173°
2026-04-26 08:06 -22.57629 147.94881 35103 ft 442 kts 172°
2026-04-26 08:07 -22.63671 147.96570 35115 ft 452 kts 172°
2026-04-26 08:07 -22.69711 147.98283 35108 ft 444 kts 172°
2026-04-26 08:08 -22.75658 147.99970 35111 ft 442 kts 172°
2026-04-26 08:08 -22.80624 148.01363 35119 ft 445 kts 172°
2026-04-26 08:09 -22.86625 148.03046 35121 ft 445 kts 172°
2026-04-26 08:09 -22.92613 148.04728 35096 ft 444 kts 172°
2026-04-26 08:10 -22.98597 148.06413 35100 ft 445 kts 172°
2026-04-26 08:10 -23.04603 148.08104 35106 ft 447 kts 172°
2026-04-26 08:11 -23.10622 148.09802 35111 ft 447 kts 172°
2026-04-26 08:11 -23.16634 148.11501 35113 ft 447 kts 172°
2026-04-26 08:12 -23.22658 148.13204 35112 ft 448 kts 172°
2026-04-26 08:12 -23.28693 148.14914 35112 ft 448 kts 172°
2026-04-26 08:13 -23.34725 148.16625 35113 ft 448 kts 172°
2026-04-26 08:13 -23.40761 148.18338 35116 ft 449 kts 172°
2026-04-26 08:14 -23.46811 148.20055 35120 ft 450 kts 172°
2026-04-26 08:14 -23.52877 148.21778 35119 ft 450 kts 172°
2026-04-26 08:15 -23.58886 148.23489 35120 ft 449 kts 172°
2026-04-26 08:15 -23.64939 148.25212 35081 ft 451 kts 172°
2026-04-26 08:16 -23.71009 148.26941 35084 ft 450 kts 172°
2026-04-26 08:16 -23.77062 148.28670 35090 ft 450 kts 172°
2026-04-26 08:17 -23.83124 148.30400 35088 ft 451 kts 172°
2026-04-26 08:17 -23.89205 148.32138 35091 ft 451 kts 172°
2026-04-26 08:18 -23.95270 148.33875 35090 ft 450 kts 172°
2026-04-26 08:18 -24.01330 148.35610 35091 ft 451 kts 171°
2026-04-26 08:19 -24.07405 148.37352 35094 ft 452 kts 171°
2026-04-26 08:19 -24.13482 148.39096 35093 ft 451 kts 171°
2026-04-26 08:20 -24.19559 148.40843 35099 ft 451 kts 171°
2026-04-26 08:20 -24.25634 148.42589 35105 ft 452 kts 171°
2026-04-26 08:21 -24.31717 148.44341 35104 ft 451 kts 171°
2026-04-26 08:21 -24.37782 148.46091 35106 ft 450 kts 171°
2026-04-26 08:22 -24.43851 148.47841 35110 ft 451 kts 171°
2026-04-26 08:22 -24.49928 148.49594 35115 ft 452 kts 171°
2026-04-26 08:23 -24.56005 148.51350 35116 ft 451 kts 171°
2026-04-26 08:23 -24.62071 148.53104 35120 ft 451 kts 171°
2026-04-26 08:24 -24.68153 148.54864 35124 ft 453 kts 171°
2026-04-26 08:24 -24.74240 148.56628 35130 ft 452 kts 171°
2026-04-26 08:25 -24.80311 148.58390 35133 ft 452 kts 171°
2026-04-26 08:25 -24.86395 148.60154 35137 ft 452 kts 171°
2026-04-26 08:26 -24.92463 148.61919 35139 ft 450 kts 171°
2026-04-26 08:26 -24.98517 148.63680 35139 ft 450 kts 171°
2026-04-26 08:27 -25.04577 148.65446 35139 ft 450 kts 171°
2026-04-26 08:27 -25.10634 148.67211 35141 ft 450 kts 171°
2026-04-26 08:28 -25.16633 148.68963 35143 ft 449 kts 171°
2026-04-26 08:28 -25.22668 148.70726 35142 ft 449 kts 170°
2026-04-26 08:29 -25.28714 148.72493 35150 ft 449 kts 170°
2026-04-26 08:29 -25.34751 148.74262 35159 ft 448 kts 170°
2026-04-26 08:30 -25.40771 148.76028 35154 ft 447 kts 170°
2026-04-26 08:30 -25.46790 148.77796 35160 ft 448 kts 170°
2026-04-26 08:31 -25.52818 148.79569 35156 ft 448 kts 170°
2026-04-26 08:31 -25.58839 148.81344 35150 ft 447 kts 170°
2026-04-26 08:32 -25.64860 148.83118 35152 ft 448 kts 170°
2026-04-26 08:32 -25.70890 148.84892 35153 ft 448 kts 170°
2026-04-26 08:33 -25.76916 148.86665 35152 ft 448 kts 170°
2026-04-26 08:33 -25.82930 148.88440 35147 ft 447 kts 170°
2026-04-26 08:34 -25.88952 148.90219 35150 ft 448 kts 170°
2026-04-26 08:34 -25.94939 148.91991 35152 ft 448 kts 169°
2026-04-26 08:35 -26.00960 148.93776 35153 ft 447 kts 169°
2026-04-26 08:35 -26.06973 148.95558 35147 ft 448 kts 169°
2026-04-26 08:36 -26.12996 148.97346 35151 ft 448 kts 169°
2026-04-26 08:36 -26.19014 148.99136 35155 ft 447 kts 169°
2026-04-26 08:37 -26.25022 149.00925 35152 ft 447 kts 169°
2026-04-26 08:37 -26.31033 149.02716 35153 ft 448 kts 169°
2026-04-26 08:38 -26.37046 149.04510 35152 ft 447 kts 169°
2026-04-26 08:38 -26.43053 149.06307 35156 ft 446 kts 169°
2026-04-26 08:39 -26.49026 149.08209 35157 ft 447 kts 167°
2026-04-26 08:39 -26.54980 149.10203 35153 ft 447 kts 167°
2026-04-26 08:40 -26.60937 149.12225 35157 ft 447 kts 167°
2026-04-26 08:40 -26.66879 149.14252 35151 ft 446 kts 167°
2026-04-26 08:41 -26.72814 149.16282 35153 ft 446 kts 167°
2026-04-26 08:41 -26.78748 149.18314 35148 ft 446 kts 167°
2026-04-26 08:42 -26.84683 149.20350 35150 ft 446 kts 167°
2026-04-26 08:42 -26.90606 149.22384 35146 ft 445 kts 166°
2026-04-26 08:43 -26.96524 149.24419 35147 ft 445 kts 166°
2026-04-26 08:43 -27.02447 149.26458 35144 ft 445 kts 166°
2026-04-26 08:44 -27.08369 149.28500 35143 ft 445 kts 166°
2026-04-26 08:44 -27.14236 149.30524 35141 ft 444 kts 166°
2026-04-26 08:45 -27.20138 149.32563 35141 ft 444 kts 166°
2026-04-26 08:45 -27.26047 149.34606 35140 ft 445 kts 166°
2026-04-26 08:46 -27.31956 149.36653 35151 ft 444 kts 166°
2026-04-26 08:46 -27.37853 149.38697 35142 ft 443 kts 166°
2026-04-26 08:47 -27.43736 149.40739 35143 ft 443 kts 166°
2026-04-26 08:47 -27.49627 149.42785 35141 ft 443 kts 166°
2026-04-26 08:48 -27.55510 149.44832 35156 ft 442 kts 166°
2026-04-26 08:48 -27.61382 149.46876 35142 ft 441 kts 166°
2026-04-26 08:49 -27.67247 149.48921 35143 ft 442 kts 166°
2026-04-26 08:49 -27.73122 149.50972 35146 ft 442 kts 166°
2026-04-26 08:50 -27.78984 149.53021 35149 ft 440 kts 166°
2026-04-26 08:50 -27.84838 149.55069 35147 ft 441 kts 166°
2026-04-26 08:51 -27.93632 149.58151 35154 ft 441 kts 165°
2026-04-26 08:52 -27.99482 149.60204 35159 ft 440 kts 165°
2026-04-26 08:52 -28.05322 149.62256 35148 ft 439 kts 165°
2026-04-26 08:53 -28.11159 149.64309 35148 ft 439 kts 165°
2026-04-26 08:53 -28.16960 149.66306 35154 ft 438 kts 167°
2026-04-26 08:54 -28.22834 149.68112 35160 ft 437 kts 168°
2026-04-26 08:54 -28.28719 149.69847 35155 ft 437 kts 168°
2026-04-26 08:55 -28.34606 149.71562 35158 ft 437 kts 168°
2026-04-26 08:55 -28.40490 149.73273 35153 ft 436 kts 167°
2026-04-26 08:56 -28.46369 149.74984 35152 ft 436 kts 167°
2026-04-26 08:56 -28.52240 149.76697 35147 ft 436 kts 167°
2026-04-26 08:57 -28.57122 149.78123 35148 ft 436 kts 167°
2026-04-26 08:57 -28.60997 149.79258 35150 ft 417 kts 167°
2026-04-26 08:57 -28.62826 149.79796 35150 ft 404 kts 167°
2026-04-26 08:58 -28.68213 149.81381 35161 ft 401 kts 167°
2026-04-26 08:58 -28.73709 149.82990 35162 ft 414 kts 167°
2026-04-26 08:59 -28.79356 149.84646 35165 ft 429 kts 167°
2026-04-26 08:59 -28.85286 149.86384 35167 ft 445 kts 167°
2026-04-26 09:00 -28.91339 149.88161 35161 ft 451 kts 167°
2026-04-26 09:00 -28.97489 149.89973 35166 ft 465 kts 167°
2026-04-26 09:01 -29.03800 149.91835 35164 ft 469 kts 167°
2026-04-26 09:01 -29.10061 149.93689 35158 ft 463 kts 167°
2026-04-26 09:02 -29.16296 149.95544 35160 ft 458 kts 167°
2026-04-26 09:02 -29.22447 149.97387 35169 ft 463 kts 167°
2026-04-26 09:03 -29.28804 149.99241 35173 ft 477 kts 167°
2026-04-26 09:03 -29.35173 150.01126 35171 ft 467 kts 167°
2026-04-26 09:04 -29.41431 150.02990 35172 ft 465 kts 167°
2026-04-26 09:04 -29.47721 150.04859 35175 ft 468 kts 167°
2026-04-26 09:05 -29.54017 150.06733 35174 ft 466 kts 167°
2026-04-26 09:05 -29.60284 150.08605 35177 ft 465 kts 167°
2026-04-26 09:06 -29.66552 150.10478 35176 ft 466 kts 167°
2026-04-26 09:06 -29.72824 150.12351 35180 ft 465 kts 167°
2026-04-26 09:07 -29.79068 150.14219 35181 ft 463 kts 167°
2026-04-26 09:07 -29.85312 150.16090 35184 ft 464 kts 167°
2026-04-26 09:08 -29.91560 150.17965 35188 ft 463 kts 167°
2026-04-26 09:08 -29.97785 150.19836 35191 ft 462 kts 167°
2026-04-26 09:09 -30.03999 150.21706 35195 ft 462 kts 167°
2026-04-26 09:09 -30.10227 150.23584 35196 ft 462 kts 167°
2026-04-26 09:10 -30.16399 150.25446 35192 ft 461 kts 167°
2026-04-26 09:10 -30.22594 150.27319 35192 ft 460 kts 167°
2026-04-26 09:11 -30.28788 150.29194 35194 ft 460 kts 167°
2026-04-26 09:11 -30.34831 150.31031 35190 ft 429 kts 167°
2026-04-26 09:11 -30.37650 150.31892 35187 ft 409 kts 167°
2026-04-26 09:12 -30.40329 150.32710 35190 ft 388 kts 167°
2026-04-26 09:12 -30.42866 150.33486 35198 ft 366 kts 167°
2026-04-26 09:12 -30.45260 150.34219 35196 ft 347 kts 168°
2026-04-26 09:13 -30.49864 150.35620 35204 ft 341 kts 168°
2026-04-26 09:13 -30.54454 150.37008 35205 ft 341 kts 168°
2026-04-26 09:14 -30.59047 150.38400 35205 ft 341 kts 168°
2026-04-26 09:14 -30.63643 150.39797 35199 ft 342 kts 168°
2026-04-26 09:15 -30.68246 150.41200 35202 ft 342 kts 168°
2026-04-26 09:15 -30.72861 150.42608 35200 ft 344 kts 168°
2026-04-26 09:16 -30.77498 150.44025 35203 ft 346 kts 168°
2026-04-26 09:16 -30.82175 150.45456 35115 ft 353 kts 168°
2026-04-26 09:16 -30.84613 150.46199 34709 ft 370 kts 167°
2026-04-26 09:17 -30.87145 150.46970 34466 ft 382 kts 167°
2026-04-26 09:17 -30.89770 150.47770 34209 ft 397 kts 167°
2026-04-26 09:17 -30.92477 150.48597 34169 ft 406 kts 167°
2026-04-26 09:18 -30.98046 150.50304 34199 ft 423 kts 167°
2026-04-26 09:18 -31.03857 150.52087 34213 ft 441 kts 167°
2026-04-26 09:18 -31.06805 150.52995 34206 ft 428 kts 167°
2026-04-26 09:19 -31.09618 150.53867 34206 ft 412 kts 167°
2026-04-26 09:19 -31.15092 150.55563 34210 ft 411 kts 167°
2026-04-26 09:20 -31.20677 150.57287 34210 ft 417 kts 167°
2026-04-26 09:20 -31.26270 150.59015 34213 ft 414 kts 167°
2026-04-26 09:21 -31.31826 150.60736 34212 ft 414 kts 167°
2026-04-26 09:21 -31.37399 150.62462 34215 ft 415 kts 167°
2026-04-26 09:22 -31.42972 150.64189 34215 ft 414 kts 167°
2026-04-26 09:22 -31.48532 150.65915 34226 ft 413 kts 167°
2026-04-26 09:23 -31.54100 150.67647 34228 ft 414 kts 167°
2026-04-26 09:23 -31.59664 150.69377 34230 ft 413 kts 167°
2026-04-26 09:24 -31.65222 150.71109 34232 ft 413 kts 167°
2026-04-26 09:24 -31.70780 150.72843 34237 ft 414 kts 166°
2026-04-26 09:25 -31.76338 150.74580 34234 ft 413 kts 166°
2026-04-26 09:25 -31.81893 150.76319 34233 ft 413 kts 166°
2026-04-26 09:26 -31.87445 150.78059 34234 ft 413 kts 166°
2026-04-26 09:26 -31.93038 150.79812 33625 ft 419 kts 166°
2026-04-26 09:26 -31.95838 150.80689 33093 ft 412 kts 166°
2026-04-26 09:27 -31.98584 150.81552 32573 ft 405 kts 166°
2026-04-26 09:27 -32.01296 150.82331 32067 ft 398 kts 169°
2026-04-26 09:27 -32.03991 150.82958 31570 ft 392 kts 170°
2026-04-26 09:27 -32.06664 150.83511 31075 ft 390 kts 171°
2026-04-26 09:28 -32.09338 150.84031 30594 ft 389 kts 171°
2026-04-26 09:28 -32.12004 150.84528 30082 ft 388 kts 171°
2026-04-26 09:28 -32.14659 150.85011 29513 ft 385 kts 171°
2026-04-26 09:28 -32.17295 150.85484 28976 ft 381 kts 171°
2026-04-26 09:29 -32.19905 150.85949 28435 ft 377 kts 171°
2026-04-26 09:29 -32.22488 150.86407 27913 ft 374 kts 171°
2026-04-26 09:29 -32.25059 150.86861 27396 ft 372 kts 171°
2026-04-26 09:29 -32.27611 150.87310 26889 ft 370 kts 171°
2026-04-26 09:30 -32.30152 150.87756 26388 ft 368 kts 171°
2026-04-26 09:30 -32.32676 150.88200 25900 ft 365 kts 171°
2026-04-26 09:30 -32.35176 150.88640 25419 ft 362 kts 171°
2026-04-26 09:30 -32.37661 150.89078 24946 ft 360 kts 170°
2026-04-26 09:31 -32.40128 150.89512 24483 ft 358 kts 170°
2026-04-26 09:31 -32.42583 150.89948 24025 ft 356 kts 170°
2026-04-26 09:31 -32.45031 150.90383 23524 ft 355 kts 170°
2026-04-26 09:31 -32.47459 150.90815 22987 ft 352 kts 170°
2026-04-26 09:32 -32.49871 150.91243 22455 ft 349 kts 170°
2026-04-26 09:32 -32.52264 150.91665 21936 ft 345 kts 170°
2026-04-26 09:32 -32.54626 150.92082 21424 ft 342 kts 170°
2026-04-26 09:32 -32.56969 150.92495 20926 ft 339 kts 170°
2026-04-26 09:33 -32.59298 150.92907 20435 ft 337 kts 170°
2026-04-26 09:33 -32.61611 150.93317 19951 ft 336 kts 170°
2026-04-26 09:33 -32.63916 150.93726 19476 ft 334 kts 170°
2026-04-26 09:33 -32.66202 150.94130 18997 ft 331 kts 170°
2026-04-26 09:34 -32.68470 150.94532 18543 ft 328 kts 170°
2026-04-26 09:34 -32.70718 150.94932 18014 ft 326 kts 170°
2026-04-26 09:34 -32.72953 150.95331 17485 ft 323 kts 170°
2026-04-26 09:34 -32.75137 150.95721 16976 ft 320 kts 170°
2026-04-26 09:35 -32.77330 150.96112 16465 ft 317 kts 170°
2026-04-26 09:35 -32.79527 150.96503 15964 ft 314 kts 170°
2026-04-26 09:35 -32.81649 150.96881 15474 ft 311 kts 170°
2026-04-26 09:35 -32.83779 150.97260 14999 ft 309 kts 171°
2026-04-26 09:36 -32.85895 150.97637 14517 ft 306 kts 171°
2026-04-26 09:36 -32.87992 150.98010 14042 ft 304 kts 171°
2026-04-26 09:36 -32.90076 150.98381 13521 ft 302 kts 171°
2026-04-26 09:36 -32.92149 150.98749 13003 ft 300 kts 171°
2026-04-26 09:37 -32.94204 150.99112 12493 ft 298 kts 170°
2026-04-26 09:37 -32.96251 150.99474 11994 ft 296 kts 170°
2026-04-26 09:37 -32.98281 150.99833 11501 ft 294 kts 170°
2026-04-26 09:37 -33.00304 151.00192 11012 ft 293 kts 170°
2026-04-26 09:38 -33.02310 151.00549 10559 ft 290 kts 170°
2026-04-26 09:38 -33.04280 151.00900 10237 ft 282 kts 169°
2026-04-26 09:38 -33.06149 151.01231 10245 ft 261 kts 169°
2026-04-26 09:38 -33.07881 151.01539 10217 ft 242 kts 169°
2026-04-26 09:39 -33.09514 151.01831 10220 ft 240 kts 169°
2026-04-26 09:39 -33.11196 151.02139 9723 ft 243 kts 169°
2026-04-26 09:39 -33.12852 151.02441 9322 ft 239 kts 169°
2026-04-26 09:39 -33.14491 151.02741 8901 ft 237 kts 169°
2026-04-26 09:40 -33.16119 151.03038 8484 ft 236 kts 170°
2026-04-26 09:40 -33.17732 151.03331 8079 ft 234 kts 170°
2026-04-26 09:40 -33.19282 151.03608 7988 ft 216 kts 170°
2026-04-26 09:40 -33.20828 151.03884 7500 ft 226 kts 170°
2026-04-26 09:41 -33.22348 151.04156 7389 ft 220 kts 170°
2026-04-26 09:41 -33.23884 151.04439 7174 ft 223 kts 170°
2026-04-26 09:41 -33.25407 151.04724 7086 ft 222 kts 170°
2026-04-26 09:41 -33.26936 151.05014 7042 ft 223 kts 170°
2026-04-26 09:42 -33.27951 151.05208 7032 ft 222 kts 170°
2026-04-26 09:42 -33.29996 151.05599 7007 ft 223 kts 170°
2026-04-26 09:42 -33.31013 151.05795 7014 ft 223 kts 170°
2026-04-26 09:42 -33.32547 151.06088 7009 ft 223 kts 170°
2026-04-26 09:43 -33.34078 151.06383 7009 ft 223 kts 170°
2026-04-26 09:43 -33.35611 151.06677 7005 ft 223 kts 170°
2026-04-26 09:43 -33.37142 151.06971 6999 ft 223 kts 170°
2026-04-26 09:43 -33.38675 151.07265 7003 ft 223 kts 170°
2026-04-26 09:44 -33.40207 151.07559 6996 ft 223 kts 170°
2026-04-26 09:44 -33.41758 151.07858 6686 ft 232 kts 170°
2026-04-26 09:44 -33.43347 151.08165 6323 ft 228 kts 170°
2026-04-26 09:44 -33.44900 151.08464 5939 ft 225 kts 170°
2026-04-26 09:45 -33.46446 151.08763 5506 ft 225 kts 171°
2026-04-26 09:45 -33.47975 151.09059 5220 ft 217 kts 171°
2026-04-26 09:45 -33.49434 151.09340 5099 ft 213 kts 171°
2026-04-26 09:45 -33.50924 151.09626 5046 ft 218 kts 171°
2026-04-26 09:46 -33.52419 151.09912 5023 ft 218 kts 171°
2026-04-26 09:46 -33.53930 151.10201 5014 ft 220 kts 171°
2026-04-26 09:46 -33.55438 151.10491 5002 ft 219 kts 171°
2026-04-26 09:46 -33.56943 151.10781 5006 ft 220 kts 171°
2026-04-26 09:47 -33.58456 151.11072 5000 ft 219 kts 171°
2026-04-26 09:47 -33.59959 151.11361 4998 ft 219 kts 171°
2026-04-26 09:47 -33.61449 151.11651 5000 ft 219 kts 171°
2026-04-26 09:47 -33.62947 151.11944 4998 ft 218 kts 171°
2026-04-26 09:48 -33.64449 151.12239 4999 ft 220 kts 171°
2026-04-26 09:48 -33.65954 151.12536 4998 ft 218 kts 171°
2026-04-26 09:48 -33.67453 151.12832 4991 ft 219 kts 171°
2026-04-26 09:48 -33.68956 151.13129 4988 ft 218 kts 171°
2026-04-26 09:49 -33.70450 151.13422 4984 ft 218 kts 171°
2026-04-26 09:49 -33.71955 151.13716 4981 ft 219 kts 171°
2026-04-26 09:49 -33.73450 151.14006 4981 ft 217 kts 171°
2026-04-26 09:49 -33.74949 151.14298 4977 ft 219 kts 171°
2026-04-26 09:50 -33.76445 151.14588 4978 ft 218 kts 171°
2026-04-26 09:50 -33.77943 151.14876 4975 ft 218 kts 171°
2026-04-26 09:50 -33.79449 151.15142 4972 ft 218 kts 177°
2026-04-26 09:50 -33.80960 151.15128 4977 ft 218 kts 185°
2026-04-26 09:51 -33.82470 151.14921 4970 ft 218 kts 189°
2026-04-26 09:51 -33.83959 151.14617 4967 ft 217 kts 192°
2026-04-26 09:51 -33.85444 151.14252 4961 ft 218 kts 193°
2026-04-26 09:51 -33.86964 151.13838 4439 ft 228 kts 194°
2026-04-26 09:52 -33.88491 151.13401 4096 ft 224 kts 194°
2026-04-26 09:52 -33.91534 151.12504 3277 ft 223 kts 194°
2026-04-26 09:52 -33.92999 151.12069 3103 ft 211 kts 194°
2026-04-26 09:53 -33.94442 151.11644 3036 ft 217 kts 194°
2026-04-26 09:53 -33.95910 151.11217 3006 ft 217 kts 194°
2026-04-26 09:53 -33.97385 151.10793 2986 ft 219 kts 193°
2026-04-26 09:53 -33.98871 151.10365 2978 ft 220 kts 194°
2026-04-26 09:54 -34.00359 151.09940 2975 ft 219 kts 194°
2026-04-26 09:54 -34.01841 151.09513 2974 ft 220 kts 194°
2026-04-26 09:54 -34.03332 151.09084 2999 ft 220 kts 194°
2026-04-26 09:54 -34.04859 151.08643 3020 ft 226 kts 194°
2026-04-26 09:55 -34.06376 151.08228 2999 ft 223 kts 191°
2026-04-26 09:55 -34.07905 151.07952 2993 ft 222 kts 187°
2026-04-26 09:55 -34.09442 151.07773 2982 ft 221 kts 186°
2026-04-26 09:55 -34.10933 151.07602 2978 ft 203 kts 186°
2026-04-26 09:56 -34.12253 151.07450 2967 ft 179 kts 186°
2026-04-26 09:56 -34.13479 151.07312 2971 ft 177 kts 186°
2026-04-26 09:56 -34.14709 151.07177 2973 ft 189 kts 186°
2026-04-26 09:56 -34.16015 151.07029 2980 ft 188 kts 185°
2026-04-26 09:57 -34.17328 151.06880 2979 ft 189 kts 186°
2026-04-26 09:57 -34.18634 151.06729 2988 ft 189 kts 186°
2026-04-26 09:57 -34.19946 151.06579 2983 ft 190 kts 185°
2026-04-26 09:57 -34.21267 151.06430 2976 ft 188 kts 186°
2026-04-26 09:58 -34.22498 151.06352 2974 ft 174 kts 174°
2026-04-26 09:58 -34.23642 151.06876 2985 ft 177 kts 144°
2026-04-26 09:58 -34.24475 151.07933 2988 ft 175 kts 122°
2026-04-26 09:58 -34.25054 151.09220 3001 ft 175 kts 109°
2026-04-26 09:59 -34.25474 151.10611 3004 ft 173 kts 103°
2026-04-26 09:59 -34.25732 151.11996 3000 ft 168 kts 93°
2026-04-26 09:59 -34.25783 151.13402 2990 ft 169 kts 86°
2026-04-26 09:59 -34.25714 151.14825 2988 ft 166 kts 78°
2026-04-26 10:00 -34.25455 151.16196 2989 ft 165 kts 68°
2026-04-26 10:00 -34.25070 151.17464 2979 ft 162 kts 65°
2026-04-26 10:00 -34.24547 151.18697 2977 ft 160 kts 53°
2026-04-26 10:00 -34.23879 151.19749 2976 ft 160 kts 46°
2026-04-26 10:01 -34.23135 151.20733 2981 ft 159 kts 41°
2026-04-26 10:01 -34.22272 151.21561 2991 ft 159 kts 31°
2026-04-26 10:01 -34.21276 151.22065 2989 ft 156 kts
2026-04-26 10:01 -34.20188 151.22144 2987 ft 157 kts
2026-04-26 10:02 -34.19094 151.22157 2977 ft 156 kts 360°
2026-04-26 10:02 -34.18009 151.22125 2971 ft 156 kts 358°
2026-04-26 10:02 -34.16929 151.22065 2969 ft 156 kts 357°
2026-04-26 10:02 -34.15844 151.21980 2966 ft 156 kts 356°
2026-04-26 10:03 -34.14759 151.21881 2967 ft 156 kts 355°
2026-04-26 10:03 -34.13663 151.21767 2977 ft 159 kts 355°
2026-04-26 10:03 -34.12565 151.21645 2979 ft 158 kts 354°
2026-04-26 10:03 -34.11470 151.21516 2975 ft 158 kts 354°
2026-04-26 10:04 -34.10359 151.21375 2831 ft 162 kts 354°
2026-04-26 10:04 -34.09262 151.21224 2575 ft 157 kts 354°
2026-04-26 10:04 -34.08184 151.21062 2362 ft 156 kts 353°
2026-04-26 10:04 -34.07109 151.20837 2149 ft 157 kts 351°
2026-04-26 10:05 -34.06063 151.20583 1943 ft 147 kts 350°
2026-04-26 10:05 -34.05094 151.20332 1740 ft 142 kts 350°
2026-04-26 10:05 -34.04120 151.20077 1558 ft 144 kts 350°
2026-04-26 10:05 -34.03148 151.19818 1376 ft 145 kts 351°
2026-04-26 10:06 -34.02167 151.19559 1177 ft 141 kts 351°
2026-04-26 10:06 -34.01203 151.19308 980 ft 143 kts 351°
2026-04-26 10:06 -34.00232 151.19061 803 ft 145 kts 351°
2026-04-26 10:06 -33.99278 151.18820 624 ft 137 kts 350°
2026-04-26 10:07 -33.98349 151.18570 449 ft 136 kts 349°
2026-04-26 10:07 -33.97409 151.18326 266 ft 139 kts 352°
2026-04-26 10:07 -33.96484 151.18100 97 ft 135 kts 350°
2026-04-26 10:07 -33.95585 151.17866 30 ft 121 kts 349°
2026-04-26 10:08 -33.95020 151.17717 28 ft 52 kts 347°
2026-04-26 10:08 -33.94812 151.17667 29 ft 12 kts 350°
2026-04-26 10:08 -33.94614 151.17654 29 ft 24 kts
2026-04-26 10:08 -33.94533 151.17676 30 ft 14 kts 14°
2026-04-26 10:09 -33.94499 151.17688 30 ft 0 kts 18°
2026-04-26 10:10 -33.94498 151.17689 30 ft 2 kts 18°
2026-04-26 10:10 -33.94435 151.17713 29 ft 15 kts 17°
2026-04-26 10:10 -33.94298 151.17723 30 ft 25 kts 347°
2026-04-26 10:10 -33.94122 151.17671 29 ft 26 kts 346°
2026-04-26 10:11 -33.93935 151.17624 29 ft 24 kts 359°
2026-04-26 10:11 -33.93863 151.17690 30 ft 15 kts 59°
2026-04-26 10:11 -33.93763 151.17774 30 ft 21 kts 11°
2026-04-26 10:11 -33.93638 151.17807 30 ft 11 kts 13°
2026-04-26 10:12 -33.93576 151.17816 30 ft 8 kts 358°
2026-04-26 10:12 -33.93533 151.17789 30 ft 6 kts 314°
2026-04-26 10:12 -33.93527 151.17775 30 ft 2 kts 300°
2026-04-26 10:12 -33.93525 151.17766 30 ft 0 kts 290°